Weather History for KMRY - March, 2014

Change the Weather History Date:

Thursday, March 20, 2014

  Actual Average Record
Temperature  
Mean Temperature 55 °F 53 °F  
Max Temperature 64 °F 61 °F 72 °F (2001)
Min Temperature 45 °F 46 °F 40 °F (2006)
Degree Days  
Heating Degree Days 10    
Month to date heating degree days 139  
Since 1 July heating degree days 1943  
Cooling Degree Days 0    
Month to date cooling degree days 0  
Year to date cooling degree days 2  
Growing Degree Days 4 (Base 50)    
Moisture  
Dew Point 44 °F    
Average Humidity 67    
Maximum Humidity 83    
Minimum Humidity 51    
Precipitation  
Precipitation 0.00 in - 0.69 in (2011)
Month to date precipitation 1.02  
Year to date precipitation 4.82  
Since 1 July precipitation 6.10  
Sea Level Pressure  
Sea Level Pressure 30.06 in    
Wind  
Wind Speed 5 mph (SW)    
Max Wind Speed 14 mph    
Max Gust Speed 16 mph    
Visibility 10 miles    
Events      
T = Trace of Precipitation, MM = Missing Value Source: NWS Daily Summary

Daily Weather History Graph

Daily Weather History Graph

Search for Another Location

Airport or City:

Trip Planner

Search our weather history database for the weather conditions in past years. The results will help you decide how hot, cold, wet, or windy it might be!

Date:

Astronomy

Mar. 20, 2014 Rise Set
Actual Time 7:10 AM PDT 7:19 PM PDT
Civil Twilight 6:45 AM PDT 7:45 PM PDT
Nautical Twilight 6:14 AM PDT 8:15 PM PDT
Astronomical Twilight 5:44 AM PDT 8:45 PM PDT
Moon 11:37 PM PDT (3/20) 9:27 AM PDT (3/20)
Length of Visible Light 13h 00m
Length of Day
12h 08m
Waning Gibbous, 83% of the Moon is Illuminated
Mar 20
Waning Gibbous
Mar 23
Last Quarter
Mar 30
New
Apr 7
First Quarter
Apr 15
Full

Hourly Weather History & Observations

Time (PDT) Temp. Windchill Dew Point Humidity Pressure Visibility Wind Dir Wind Speed Gust Speed Precip Events Conditions
12:54 AM 53.1 °F - 41.0 °F 64% 30.10 in 10.0 mi Calm Calm - N/A   Clear
1:54 AM 51.1 °F - 41.0 °F 68% 30.11 in 10.0 mi Calm Calm - N/A   Clear
2:54 AM 48.9 °F - 39.9 °F 71% 30.10 in 10.0 mi East 3.5 mph - N/A   Clear
3:54 AM 50.0 °F - 39.9 °F 68% 30.09 in 10.0 mi Calm Calm - N/A   Clear
4:50 AM 48.2 °F - 39.2 °F 71% 30.05 in 10.0 mi Calm Calm - N/A   Scattered Clouds
4:54 AM 48.0 °F - 39.0 °F 71% 30.09 in 10.0 mi Calm Calm - N/A   Mostly Cloudy
5:14 AM 46.4 °F 44.3 °F 37.4 °F 71% 30.05 in 10.0 mi East 4.6 mph - N/A   Scattered Clouds
5:54 AM 48.0 °F - 39.0 °F 71% 30.09 in 10.0 mi East 3.5 mph - N/A   Clear
6:54 AM 46.0 °F 43.1 °F 39.0 °F 76% 30.08 in 10.0 mi East 5.8 mph - N/A   Clear
7:54 AM 48.0 °F - 41.0 °F 77% 30.09 in 10.0 mi East 3.5 mph - N/A   Clear
8:54 AM 54.0 °F - 46.0 °F 75% 30.09 in 10.0 mi Calm Calm - N/A   Clear
9:54 AM 61.0 °F - 43.0 °F 52% 30.09 in 10.0 mi Calm Calm - N/A   Clear
10:54 AM 59.0 °F - 48.0 °F 67% 30.09 in 10.0 mi West 6.9 mph - N/A   Clear
11:54 AM 60.1 °F - 43.0 °F 53% 30.08 in 10.0 mi West 5.8 mph - N/A   Clear
12:54 PM 61.0 °F - 48.0 °F 62% 30.07 in 10.0 mi WNW 9.2 mph - N/A   Clear
1:54 PM 63.0 °F - 48.0 °F 58% 30.05 in 10.0 mi NW 6.9 mph - N/A   Clear
2:54 PM 63.0 °F - 50.0 °F 63% 30.03 in 9.0 mi WNW 9.2 mph - N/A   Clear
3:54 PM 61.0 °F - 48.9 °F 64% 30.03 in 9.0 mi WNW 11.5 mph - N/A   Clear
4:54 PM 60.1 °F - 48.0 °F 64% 30.02 in 10.0 mi West 8.1 mph - N/A   Clear
5:54 PM 57.9 °F - 46.9 °F 67% 30.02 in 10.0 mi West 5.8 mph - N/A   Clear
6:54 PM 55.9 °F - 46.9 °F 72% 30.02 in 9.0 mi SSW 5.8 mph - N/A   Clear
7:54 PM 54.0 °F - 46.0 °F 75% 30.02 in 10.0 mi SW 3.5 mph - N/A   Clear
8:54 PM 54.0 °F - 46.0 °F 75% 30.03 in 10.0 mi SSW 6.9 mph - N/A   Partly Cloudy
9:54 PM 53.1 °F - 46.0 °F 77% 30.04 in 9.0 mi SSW 6.9 mph - N/A   Partly Cloudy
10:22 PM 53.6 °F - 46.4 °F 77% 30.01 in 9.0 mi South 5.8 mph - N/A   Mostly Cloudy
10:54 PM 52.0 °F - 46.0 °F 80% 30.04 in 9.0 mi South 5.8 mph - N/A   Overcast
11:52 PM 51.8 °F - 46.4 °F 82% 30.00 in 9.0 mi South 5.8 mph - N/A   Scattered Clouds
11:54 PM 52.0 °F - 46.0 °F 80% 30.04 in 9.0 mi South 4.6 mph - N/A   Scattered Clouds